QPF
0.02 0.02 0.02 0.02 0.02 0.01 0.02 0.02 0.02 0.02 0.02 0.02 0.01 0.01 0.02 0.02 0.01 0.01 0.00 0.01 0.01 0.00 0.00 0.01 0.01 0.01 0.01 0.02 0.02 0.02 0.03 0.03 0.03 0.04 0.03 0.03 0.02 0.02 0.02 0.01 0.01 0.01 0.02 0.02
0.02 0.02 0.02 0.02 0.01 0.01 0.01 0.02 0.02 0.02 0.02 0.02 0.01 0.01 0.01 0.01 0.01 0.01 0.01 0.01 0.01 0.00 0.00 0.01 0.01 0.01 0.01 0.02 0.02 0.03 0.03 0.02 0.03 0.04 0.04 0.03 0.02 0.02 0.03 0.03 0.02 0.02 0.02 0.02
0.02 0.01 0.02 0.02 0.02 0.02 0.02 0.02 0.01 0.02 0.03 0.03 0.02 0.01 0.01 0.01 0.01 0.01 0.01 0.01 0.00 0.00 0.01 0.01 0.01 0.01 0.01 0.02 0.02 0.03 0.03 0.03 0.03 0.04 0.04 0.04 0.03 0.03 0.03 0.04 0.03 0.02 0.02 0.02
0.03 0.02 0.02 0.01 0.02 0.02 0.02 0.02 0.02 0.02 0.02 0.02 0.02 0.01 0.01 0.01 0.01 0.01 0.01 0.01 0.00 0.00 0.01 0.01 0.01 0.01 0.01 0.02 0.02 0.03 0.03 0.03 0.04 0.04 0.05 0.06 0.05 0.05 0.05 0.04 0.03 0.03 0.02 0.02
0.04 0.03 0.02 0.01 0.02 0.02 0.02 0.02 0.02 0.01 0.01 0.01 0.01 0.01 0.01 0.01 0.01 0.01 0.01 0.00 0.00 0.00 0.00 0.01 0.01 0.01 0.02 0.02 0.02 0.02 0.03 0.03 0.04 0.04 0.05 0.05 0.06 0.05 0.05 0.04 0.03 0.03 0.03 0.02
0.04 0.03 0.02 0.02 0.02 0.02 0.02 0.02 0.02 0.01 0.01 0.01 0.00 0.00 0.01 0.01 0.01 0.01 0.01 0.01 0.00 0.00 0.01 0.01 0.01 0.01 0.02 0.02 0.02 0.02 0.02 0.03 0.03 0.04 0.04 0.05 0.06 0.06 0.05 0.04 0.03 0.03 0.03 0.03
0.03 0.03 0.02 0.02 0.01 0.01 0.02 0.02 0.01 0.01 0.01 0.01 0.01 0.01 0.01 0.01 0.01 0.01 0.01 0.01 0.01 0.01 0.01 0.01 0.01 0.01 0.01 0.01 0.01 0.01 0.02 0.02 0.02 0.03 0.03 0.04 0.05 0.06 0.05 0.05 0.04 0.04 0.04 0.03
0.02 0.03 0.02 0.01 0.01 0.01 0.02 0.01 0.01 0.01 0.01 0.01 0.01 0.01 0.01 0.01 0.02 0.01 0.01 0.01 0.01 0.01 0.01 0.01 0.01 0.01 0.01 0.01 0.01 0.01 0.01 0.02 0.02 0.02 0.02 0.03 0.03 0.04 0.05 0.04 0.04 0.04 0.03 0.03
0.01 0.02 0.01 0.01 0.02 0.02 0.02 0.01 0.01 0.01 0.01 0.01 0.01 0.01 0.01 0.01 0.02 0.02 0.01 0.02 0.02 0.02 0.02 0.01 0.01 0.01 0.01 0.01 0.01 0.01 0.01 0.01 0.01 0.01 0.02 0.02 0.02 0.03 0.03 0.03 0.03 0.03 0.02 0.02
0.02 0.01 0.01 0.01 0.01 0.01 0.01 0.02 0.01 0.01 0.01 0.01 0.02 0.02 0.02 0.02 0.02 0.02 0.02 0.02 0.02 0.02 0.01 0.01 0.00 0.00 0.01 0.01 0.01 0.01 0.01 0.01 0.01 0.01 0.01 0.02 0.02 0.02 0.02 0.02 0.02 0.02 0.02 0.02
0.01 0.01 0.00 0.00 0.01 0.01 0.01 0.01 0.01 0.01 0.02 0.02 0.02 0.03 0.02 0.03 0.03 0.02 0.01 0.01 0.01 0.01 0.00 0.00 0.00 0.00 0.01 0.01 0.01 0.01 0.01 0.01 0.02 0.02 0.01 0.01 0.01 0.01 0.02 0.02 0.02 0.02 0.02 0.02
0.01 0.01 0.01 0.01 0.02 0.02 0.02 0.02 0.02 0.03 0.02 0.03 0.02 0.02 0.02 0.02 0.02 0.01 0.01 0.00 0.00 0.00 0.00 0.00 0.01 0.01 0.01 0.01 0.02 0.02 0.02 0.01 0.02 0.03 0.03 0.02 0.02 0.02 0.02 0.02 0.02 0.02 0.01 0.02
0.01 0.01 0.01 0.01 0.01 0.01 0.02 0.02 0.03 0.03 0.03 0.03 0.02 0.02 0.02 0.02 0.02 0.02 0.01 0.01 0.00 0.00 0.00 0.00 0.01 0.01 0.01 0.01 0.02 0.03 0.02 0.02 0.02 0.03 0.03 0.03 0.02 0.02 0.02 0.02 0.02 0.01 0.01 0.01
0.01 0.01 0.01 0.01 0.01 0.02 0.02 0.02 0.02 0.02 0.02 0.03 0.03 0.03 0.03 0.03 0.03 0.03 0.02 0.01 0.01 0.00 0.00 0.01 0.01 0.02 0.02 0.02 0.02 0.03 0.04 0.03 0.03 0.03 0.03 0.04 0.03 0.02 0.02 0.01 0.01 0.01 0.01 0.01
0.01 0.01 0.01 0.01 0.01 0.01 0.01 0.02 0.02 0.02 0.02 0.03 0.03 0.02 0.02 0.03 0.03 0.03 0.03 0.02 0.02 0.01 0.01 0.01 0.01 0.01 0.02 0.02 0.03 0.03 0.03 0.04 0.04 0.04 0.04 0.04 0.04 0.04 0.03 0.02 0.02 0.02 0.02 0.02
0.01 0.01 0.01 0.01 0.01 0.01 0.01 0.02 0.02 0.02 0.02 0.03 0.03 0.03 0.03 0.03 0.03 0.03 0.04 0.04 0.03 0.03 0.02 0.01 0.01 0.02 0.02 0.03 0.03 0.03 0.04 0.04 0.04 0.03 0.04 0.04 0.04 0.04 0.04 0.03 0.03 0.03 0.03 0.03
0.01 0.01 0.01 0.01 0.01 0.01 0.01 0.02 0.02 0.02 0.02 0.02 0.02 0.03 0.03 0.03 0.03 0.03 0.03 0.03 0.03 0.03 0.03 0.02 0.02 0.02 0.02 0.02 0.03 0.03 0.03 0.03 0.04 0.04 0.03 0.03 0.04 0.03 0.03 0.03 0.03 0.03 0.03 0.02
0.02 0.02 0.02 0.02 0.02 0.01 0.01 0.01 0.01 0.01 0.02 0.02 0.02 0.02 0.02 0.02 0.03 0.03 0.03 0.03 0.02 0.02 0.02 0.03 0.03 0.02 0.02 0.02 0.03 0.03 0.03 0.04 0.04 0.04 0.04 0.04 0.03 0.03 0.03 0.03 0.02 0.02 0.02 0.02
0.01 0.01 0.01 0.01 0.01 0.01 0.01 0.01 0.01 0.01 0.01 0.01 0.01 0.02 0.02 0.02 0.03 0.03 0.03 0.02 0.02 0.02 0.03 0.03 0.03 0.03 0.02 0.02 0.03 0.03 0.03 0.03 0.04 0.04 0.04 0.04 0.03 0.03 0.03 0.02 0.02 0.02 0.02 0.02
0.01 0.01 0.01 0.01 0.01 0.00 0.00 0.00 0.00 0.00 0.00 0.01 0.01 0.01 0.02 0.02 0.02 0.02 0.02 0.02 0.02 0.03 0.03 0.03 0.03 0.02 0.02 0.02 0.02 0.02 0.03 0.04 0.04 0.04 0.04 0.03 0.03 0.03 0.02 0.02 0.02 0.01 0.01 0.01
0.01 0.01 0.01 0.01 0.00 0.00 0.00 0.00 0.00 0.00 0.00 0.00 0.01 0.01 0.01 0.02 0.02 0.02 0.02 0.02 0.02 0.02 0.02 0.02 0.02 0.02 0.02 0.02 0.02 0.02 0.03 0.03 0.04 0.04 0.03 0.03 0.03 0.02 0.02 0.02 0.01 0.01 0.01 0.01
0.00 0.00 0.00 0.00 0.00 0.00 0.00 0.00 0.00 0.00 0.00 0.00 0.00 0.01 0.01 0.01 0.01 0.02 0.02 0.02 0.02 0.02 0.02 0.01 0.01 0.01 0.02 0.02 0.02 0.02 0.02 0.03 0.03 0.04 0.03 0.03 0.03 0.02 0.02 0.02 0.01 0.01 0.01 0.01
0.00 0.00 0.00 0.00 0.00 0.00 0.00 0.00 0.00 0.00 0.00 0.00 0.00 0.01 0.01 0.01 0.01 0.01 0.01 0.01 0.01 0.02 0.01 0.01 0.01 0.02 0.02 0.01 0.01 0.02 0.02 0.02 0.03 0.03 0.03 0.03 0.03 0.02 0.02 0.02 0.01 0.01 0.01 0.01
0.00 0.00 0.00 0.00 0.00 0.00 0.00 0.00 0.00 0.00 0.00 0.00 0.00 0.01 0.01 0.01 0.01 0.01 0.01 0.01 0.01 0.01 0.01 0.01 0.02 0.02 0.02 0.01 0.01 0.01 0.01 0.02 0.02 0.03 0.03 0.03 0.03 0.03 0.02 0.02 0.02 0.01 0.01 0.01
0.00 0.00 0.00 0.00 0.00 0.00 0.00 0.00 0.00 0.00 0.00 0.00 0.01 0.01 0.01 0.01 0.01 0.01 0.01 0.01 0.01 0.01 0.01 0.01 0.01 0.02 0.01 0.01 0.01 0.01 0.02 0.02 0.02 0.03 0.03 0.03 0.03 0.02 0.02 0.02 0.02 0.01 0.01 0.01
0.00 0.00 0.00 0.00 0.00 0.00 0.00 0.00 0.00 0.00 0.00 0.01 0.01 0.01 0.01 0.01 0.01 0.01 0.01 0.01 0.01 0.01 0.01 0.01 0.01 0.01 0.02 0.02 0.02 0.02 0.02 0.02 0.02 0.02 0.03 0.02 0.02 0.02 0.02 0.02 0.01 0.01 0.01 0.01
0.00 0.00 0.00 0.00 0.00 0.00 0.00 0.01 0.01 0.01 0.01 0.01 0.01 0.01 0.01 0.01 0.01 0.01 0.01 0.01 0.01 0.01 0.01 0.01 0.01 0.01 0.02 0.02 0.02 0.02 0.02 0.02 0.02 0.02 0.02 0.02 0.02 0.02 0.02 0.02 0.01 0.01 0.01 0.01
MSLP
1022.30 1022.60 1022.72 1022.62 1022.25 1021.62 1020.76 1019.73 1018.62 1017.53 1016.54 1015.73 1015.14 1014.79 1014.63 1014.63 1014.72 1014.82 1014.89 1014.86 1014.71 1014.44 1014.04 1013.53 1012.94 1012.28 1011.58 1010.85 1010.10 1009.35 1008.61 1007.87 1007.16 1006.47 1005.80 1005.15 1004.49 1003.83 1003.15 1002.46 1001.78 1001.14 1000.59 1000.20
1021.83 1021.83 1021.65 1021.29 1020.72 1019.96 1019.08 1018.13 1017.18 1016.31 1015.58 1015.02 1014.66 1014.48 1014.43 1014.47 1014.54 1014.59 1014.57 1014.46 1014.24 1013.91 1013.49 1012.99 1012.40 1011.76 1011.07 1010.32 1009.54 1008.74 1007.92 1007.11 1006.32 1005.57 1004.86 1004.19 1003.54 1002.91 1002.28 1001.64 1001.01 1000.40 999.87 999.47
1021.25 1020.96 1020.51 1019.90 1019.14 1018.29 1017.39 1016.52 1015.73 1015.08 1014.59 1014.28 1014.14 1014.12 1014.19 1014.28 1014.35 1014.35 1014.26 1014.07 1013.78 1013.40 1012.94 1012.41 1011.83 1011.18 1010.48 1009.71 1008.89 1008.03 1007.15 1006.27 1005.41 1004.60 1003.86 1003.17 1002.54 1001.95 1001.36 1000.78 1000.19 999.63 999.11 998.70
1020.49 1019.99 1019.31 1018.51 1017.62 1016.70 1015.81 1015.03 1014.39 1013.93 1013.67 1013.58 1013.64 1013.78 1013.94 1014.08 1014.14 1014.10 1013.94 1013.67 1013.31 1012.86 1012.35 1011.79 1011.17 1010.51 1009.78 1008.98 1008.11 1007.19 1006.24 1005.29 1004.38 1003.52 1002.75 1002.06 1001.44 1000.88 1000.35 999.83 999.30 998.77 998.28 997.87
1019.52 1018.88 1018.07 1017.16 1016.20 1015.27 1014.43 1013.75 1013.26 1012.98 1012.91 1013.01 1013.23 1013.49 1013.73 1013.89 1013.94 1013.85 1013.62 1013.27 1012.82 1012.29 1011.71 1011.09 1010.43 1009.72 1008.94 1008.09 1007.16 1006.18 1005.16 1004.15 1003.17 1002.27 1001.47 1000.77 1000.18 999.65 999.17 998.71 998.25 997.78 997.33 996.95
1018.32 1017.63 1016.79 1015.87 1014.92 1014.04 1013.29 1012.73 1012.39 1012.28 1012.37 1012.61 1012.95 1013.29 1013.57 1013.74 1013.75 1013.60 1013.30 1012.86 1012.31 1011.71 1011.05 1010.35 1009.61 1008.83 1007.98 1007.05 1006.05 1004.98 1003.88 1002.79 1001.75 1000.79 999.96 999.25 998.67 998.18 997.76 997.37 996.99 996.60 996.23 995.91
1016.91 1016.26 1015.48 1014.62 1013.77 1013.01 1012.39 1011.98 1011.79 1011.82 1012.04 1012.39 1012.80 1013.19 1013.48 1013.62 1013.59 1013.37 1012.99 1012.46 1011.82 1011.12 1010.37 1009.58 1008.75 1007.87 1006.92 1005.89 1004.78 1003.61 1002.41 1001.22 1000.09 999.07 998.18 997.45 996.87 996.42 996.06 995.75 995.47 995.21 994.96 994.75
1015.32 1014.78 1014.12 1013.41 1012.73 1012.13 1011.69 1011.44 1011.41 1011.57 1011.90 1012.32 1012.77 1013.16 1013.43 1013.54 1013.45 1013.16 1012.69 1012.08 1011.35 1010.55 1009.71 1008.81 1007.87 1006.87 1005.80 1004.64 1003.40 1002.09 1000.76 999.45 998.21 997.09 996.14 995.37 994.78 994.35 994.06 993.85 993.70 993.59 993.50 993.47
1013.62 1013.23 1012.75 1012.24 1011.75 1011.37 1011.12 1011.05 1011.16 1011.45 1011.85 1012.32 1012.78 1013.16 1013.39 1013.44 1013.29 1012.93 1012.39 1011.71 1010.90 1010.02 1009.07 1008.07 1007.02 1005.89 1004.67 1003.36 1001.95 1000.49 999.00 997.53 996.16 994.92 993.88 993.05 992.45 992.05 991.82 991.73 991.73 991.79 991.92 992.11
1011.91 1011.68 1011.39 1011.10 1010.84 1010.67 1010.63 1010.74 1010.99 1011.37 1011.83 1012.32 1012.77 1013.12 1013.31 1013.30 1013.09 1012.67 1012.08 1011.33 1010.46 1009.51 1008.48 1007.38 1006.20 1004.94 1003.57 1002.09 1000.51 998.87 997.20 995.57 994.03 992.67 991.52 990.62 989.99 989.62 989.46 989.49 989.66 989.93 990.30 990.74
1010.28 1010.20 1010.11 1010.03 1009.99 1010.04 1010.18 1010.45 1010.82 1011.28 1011.78 1012.27 1012.69 1012.99 1013.13 1013.07 1012.81 1012.35 1011.71 1010.92 1010.01 1009.00 1007.90 1006.71 1005.43 1004.03 1002.52 1000.87 999.13 997.30 995.46 993.65 991.97 990.47 989.22 988.26 987.60 987.25 987.17 987.32 987.67 988.16 988.77 989.48
1008.82 1008.87 1008.95 1009.06 1009.23 1009.46 1009.77 1010.17 1010.63 1011.14 1011.66 1012.13 1012.51 1012.76 1012.84 1012.73 1012.42 1011.93 1011.26 1010.45 1009.52 1008.47 1007.32 1006.07 1004.70 1003.19 1001.55 999.76 997.86 995.88 993.88 991.93 990.12 988.50 987.17 986.16 985.49 985.17 985.17 985.45 985.96 986.66 987.51 988.47
1007.56 1007.75 1007.97 1008.25 1008.58 1008.97 1009.41 1009.91 1010.43 1010.97 1011.47 1011.91 1012.24 1012.43 1012.45 1012.28 1011.94 1011.42 1010.74 1009.92 1008.97 1007.91 1006.73 1005.43 1003.99 1002.40 1000.66 998.77 996.76 994.67 992.56 990.52 988.62 986.94 985.56 984.53 983.88 983.60 983.68 984.08 984.74 985.62 986.67 987.83
1006.55 1006.84 1007.20 1007.61 1008.07 1008.58 1009.13 1009.69 1010.25 1010.78 1011.26 1011.65 1011.91 1012.03 1011.99 1011.77 1011.39 1010.85 1010.15 1009.33 1008.37 1007.30 1006.11 1004.78 1003.30 1001.67 999.88 997.93 995.86 993.73 991.58 989.51 987.58 985.90 984.53 983.53 982.92 982.71 982.87 983.38 984.17 985.19 986.38 987.70
1005.79 1006.17 1006.63 1007.16 1007.73 1008.32 1008.93 1009.53 1010.10 1010.61 1011.04 1011.37 1011.57 1011.62 1011.51 1011.24 1010.82 1010.25 1009.54 1008.71 1007.75 1006.67 1005.47 1004.14 1002.65 1001.01 999.21 997.26 995.21 993.09 990.98 988.95 987.09 985.47 984.17 983.24 982.71 982.58 982.84 983.43 984.31 985.43 986.71 988.11
1005.25 1005.72 1006.27 1006.89 1007.53 1008.18 1008.83 1009.44 1009.99 1010.47 1010.85 1011.11 1011.24 1011.22 1011.05 1010.73 1010.27 1009.67 1008.94 1008.10 1007.13 1006.05 1004.85 1003.52 1002.05 1000.43 998.67 996.79 994.81 992.78 990.78 988.87 987.13 985.64 984.47 983.67 983.25 983.22 983.56 984.23 985.17 986.33 987.65 989.07
1004.91 1005.46 1006.09 1006.76 1007.46 1008.14 1008.80 1009.40 1009.93 1010.37 1010.70 1010.90 1010.97 1010.88 1010.66 1010.29 1009.79 1009.15 1008.40 1007.54 1006.56 1005.48 1004.29 1002.98 1001.54 999.97 998.29 996.51 994.66 992.79 990.95 989.23 987.68 986.38 985.38 984.73 984.44 984.52 984.94 985.66 986.63 987.80 989.10 990.49
1004.75 1005.37 1006.04 1006.75 1007.47 1008.16 1008.81 1009.39 1009.89 1010.29 1010.57 1010.73 1010.74 1010.61 1010.34 1009.94 1009.40 1008.73 1007.95 1007.07 1006.08 1005.00 1003.81 1002.52 1001.14 999.65 998.07 996.43 994.75 993.07 991.45 989.95 988.63 987.54 986.74 986.26 986.11 986.30 986.78 987.54 988.51 989.65 990.91 992.23
1004.76 1005.41 1006.10 1006.81 1007.52 1008.19 1008.82 1009.37 1009.84 1010.20 1010.45 1010.57 1010.55 1010.39 1010.10 1009.67 1009.10 1008.42 1007.62 1006.71 1005.71 1004.63 1003.46 1002.20 1000.87 999.48 998.02 996.54 995.04 993.58 992.20 990.94 989.86 989.00 988.40 988.09 988.07 988.34 988.88 989.64 990.60 991.69 992.87 994.10
1004.90 1005.55 1006.23 1006.91 1007.59 1008.22 1008.81 1009.32 1009.75 1010.08 1010.31 1010.41 1010.38 1010.21 1009.91 1009.47 1008.89 1008.20 1007.39 1006.47 1005.47 1004.38 1003.23 1002.02 1000.75 999.46 998.13 996.81 995.51 994.27 993.12 992.10 991.24 990.59 990.18 990.01 990.10 990.44 991.00 991.75 992.67 993.69 994.79 995.93
1005.15 1005.76 1006.40 1007.03 1007.64 1008.22 1008.75 1009.22 1009.61 1009.92 1010.13 1010.23 1010.20 1010.04 1009.74 1009.31 1008.74 1008.05 1007.24 1006.33 1005.33 1004.26 1003.13 1001.96 1000.78 999.58 998.39 997.22 996.11 995.07 994.13 993.32 992.67 992.20 991.93 991.88 992.05 992.42 992.98 993.71 994.56 995.52 996.54 997.59
1005.47 1006.02 1006.58 1007.14 1007.67 1008.18 1008.64 1009.06 1009.42 1009.71 1009.91 1010.01 1010.00 1009.86 1009.58 1009.17 1008.63 1007.95 1007.15 1006.26 1005.28 1004.23 1003.15 1002.04 1000.92 999.83 998.76 997.75 996.80 995.94 995.19 994.56 994.07 993.74 993.59 993.62 993.83 994.21 994.75 995.43 996.22 997.10 998.05 999.03
1005.81 1006.29 1006.76 1007.23 1007.67 1008.10 1008.50 1008.87 1009.19 1009.46 1009.66 1009.77 1009.78 1009.67 1009.42 1009.04 1008.53 1007.88 1007.12 1006.25 1005.30 1004.30 1003.26 1002.22 1001.19 1000.19 999.25 998.37 997.57 996.87 996.27 995.78 995.42 995.20 995.12 995.19 995.42 995.78 996.28 996.91 997.63 998.45 999.32 1000.25
1006.13 1006.53 1006.91 1007.28 1007.65 1008.00 1008.33 1008.65 1008.95 1009.20 1009.39 1009.52 1009.55 1009.47 1009.26 1008.92 1008.44 1007.84 1007.11 1006.29 1005.39 1004.44 1003.47 1002.50 1001.56 1000.66 999.83 999.08 998.41 997.84 997.36 996.99 996.73 996.58 996.55 996.65 996.87 997.20 997.66 998.22 998.88 999.63 1000.45 1001.32
1006.39 1006.71 1007.01 1007.31 1007.59 1007.87 1008.15 1008.43 1008.69 1008.93 1009.13 1009.27 1009.32 1009.27 1009.11 1008.81 1008.38 1007.82 1007.15 1006.39 1005.55 1004.67 1003.77 1002.88 1002.03 1001.24 1000.51 999.87 999.32 998.86 998.49 998.21 998.02 997.92 997.93 998.03 998.23 998.54 998.95 999.45 1000.05 1000.74 1001.51 1002.35
1006.58 1006.83 1007.06 1007.29 1007.51 1007.74 1007.97 1008.22 1008.46 1008.69 1008.89 1009.04 1009.12 1009.10 1008.98 1008.73 1008.35 1007.86 1007.25 1006.55 1005.79 1004.98 1004.17 1003.37 1002.62 1001.92 1001.30 1000.76 1000.31 999.94 999.65 999.45 999.32 999.27 999.29 999.40 999.59 999.87 1000.23 1000.69 1001.25 1001.89 1002.62 1003.42
1006.69 1006.89 1007.07 1007.24 1007.42 1007.60 1007.81 1008.02 1008.25 1008.48 1008.69 1008.86 1008.96 1008.98 1008.90 1008.70 1008.39 1007.96 1007.43 1006.80 1006.12 1005.41 1004.68 1003.98 1003.32 1002.71 1002.19 1001.74 1001.37 1001.08 1000.87 1000.72 1000.64 1000.63 1000.67 1000.79 1000.97 1001.23 1001.57 1002.00 1002.52 1003.12 1003.81 1004.58
Thickness
5433 5435 5434 5434 5434 5433 5433 5446 5452 5470 5469 5478 5476 5473 5471 5469 5467 5466 5465 5463 5461 5459 5458 5457 5456 5455 5454 5454 5453 5453 5453 5452 5452 5452 5451 5451 5451 5451 5450 5449 5449 5449 5449 5449
5418 5424 5421 5422 5431 5431 5431 5436 5442 5448 5455 5465 5462 5460 5460 5460 5457 5457 5456 5454 5452 5450 5449 5448 5447 5447 5446 5446 5445 5445 5445 5444 5444 5444 5444 5444 5444 5443 5442 5442 5442 5442 5442 5442
5424 5414 5409 5424 5434 5432 5431 5434 5435 5441 5452 5454 5453 5452 5450 5449 5447 5446 5446 5444 5443 5442 5440 5439 5438 5438 5438 5437 5437 5437 5437 5437 5436 5436 5437 5437 5436 5435 5435 5435 5435 5435 5435 5435
5408 5401 5408 5443 5431 5428 5427 5430 5429 5432 5438 5440 5439 5440 5439 5438 5437 5436 5435 5435 5434 5432 5431 5430 5429 5428 5429 5428 5429 5429 5428 5428 5428 5428 5428 5428 5428 5428 5428 5428 5428 5427 5427 5428
5399 5406 5422 5431 5422 5414 5413 5424 5426 5424 5427 5428 5427 5429 5436 5431 5428 5427 5427 5426 5425 5423 5422 5421 5420 5420 5420 5420 5420 5420 5420 5420 5420 5420 5420 5421 5421 5420 5420 5420 5420 5419 5420 5420
5391 5399 5411 5428 5414 5405 5406 5416 5422 5415 5415 5416 5414 5423 5432 5422 5418 5417 5416 5416 5414 5413 5412 5412 5412 5411 5412 5412 5412 5412 5412 5411 5411 5412 5413 5413 5413 5412 5411 5411 5412 5412 5411 5411
5388 5394 5410 5412 5398 5396 5404 5418 5412 5408 5406 5405 5406 5411 5411 5407 5405 5404 5404 5404 5403 5403 5403 5403 5402 5403 5403 5404 5404 5404 5403 5404 5404 5404 5405 5405 5405 5404 5404 5403 5404 5403 5403 5403
5379 5385 5401 5397 5388 5394 5402 5401 5399 5398 5398 5396 5398 5397 5396 5395 5394 5393 5393 5393 5393 5392 5393 5393 5393 5394 5395 5396 5395 5395 5395 5396 5397 5397 5397 5397 5397 5396 5396 5395 5396 5395 5395 5396
5384 5396 5394 5385 5384 5385 5384 5386 5389 5389 5388 5386 5387 5387 5387 5386 5385 5384 5384 5384 5383 5382 5382 5383 5383 5385 5386 5387 5386 5387 5388 5388 5389 5389 5389 5389 5390 5389 5388 5388 5388 5388 5388 5388
5368 5382 5380 5378 5376 5374 5374 5375 5378 5378 5378 5378 5379 5379 5378 5376 5376 5375 5374 5373 5373 5373 5373 5374 5375 5376 5376 5377 5377 5378 5379 5380 5381 5381 5382 5382 5382 5382 5381 5381 5382 5382 5381 5381
5362 5371 5370 5373 5369 5368 5368 5367 5368 5370 5370 5370 5370 5371 5370 5368 5367 5366 5365 5364 5364 5364 5365 5366 5366 5367 5368 5368 5369 5370 5371 5372 5373 5374 5375 5374 5374 5374 5374 5374 5375 5375 5375 5374
5369 5368 5363 5367 5364 5361 5360 5361 5362 5362 5363 5364 5363 5363 5361 5360 5359 5358 5357 5357 5356 5357 5357 5358 5358 5359 5360 5361 5361 5362 5363 5364 5365 5366 5367 5367 5367 5366 5365 5365 5366 5366 5366 5365
5354 5354 5353 5355 5355 5353 5353 5354 5354 5354 5354 5356 5356 5354 5353 5352 5351 5350 5349 5350 5350 5350 5351 5351 5351 5352 5353 5353 5354 5355 5356 5357 5357 5358 5359 5359 5359 5359 5359 5358 5358 5358 5358 5358
5343 5343 5346 5349 5347 5345 5344 5344 5345 5345 5346 5346 5346 5345 5344 5344 5343 5343 5343 5343 5343 5343 5343 5344 5345 5346 5346 5346 5347 5347 5348 5349 5350 5351 5352 5352 5352 5352 5352 5352 5352 5352 5350 5350
5336 5336 5338 5338 5337 5336 5336 5336 5337 5337 5337 5337 5337 5337 5337 5337 5337 5337 5336 5335 5335 5336 5337 5338 5339 5339 5339 5339 5340 5340 5341 5342 5343 5344 5344 5344 5344 5344 5344 5344 5344 5344 5343 5343
5328 5328 5329 5329 5329 5329 5329 5328 5329 5329 5329 5329 5330 5330 5329 5329 5329 5328 5328 5327 5329 5331 5331 5331 5332 5333 5332 5333 5333 5334 5334 5334 5335 5336 5337 5337 5337 5337 5337 5337 5337 5337 5336 5336
5320 5322 5323 5323 5323 5322 5321 5320 5320 5321 5321 5322 5322 5322 5321 5321 5321 5321 5321 5321 5322 5323 5324 5325 5325 5326 5325 5326 5327 5328 5328 5329 5328 5329 5330 5329 5329 5329 5329 5330 5329 5329 5329 5328
5314 5315 5315 5315 5316 5315 5315 5314 5314 5314 5314 5314 5314 5314 5314 5314 5315 5315 5314 5314 5315 5317 5318 5318 5319 5319 5319 5319 5320 5321 5322 5323 5323 5323 5323 5323 5323 5323 5323 5323 5323 5323 5322 5321
5307 5307 5307 5307 5307 5308 5308 5307 5307 5307 5307 5307 5307 5308 5308 5308 5308 5307 5307 5307 5310 5312 5313 5312 5313 5313 5313 5314 5314 5315 5316 5316 5317 5317 5317 5317 5317 5317 5317 5317 5317 5317 5317 5316
5299 5299 5298 5298 5298 5298 5299 5300 5300 5300 5300 5300 5301 5301 5301 5301 5300 5300 5301 5303 5305 5306 5306 5306 5307 5307 5307 5308 5309 5310 5310 5311 5311 5311 5311 5311 5312 5311 5311 5311 5311 5311 5311 5311
5292 5292 5291 5291 5291 5291 5291 5292 5293 5293 5294 5293 5294 5295 5295 5294 5294 5294 5296 5299 5299 5299 5300 5300 5301 5301 5302 5302 5303 5304 5305 5305 5306 5306 5306 5306 5306 5306 5306 5306 5306 5306 5306 5306
5285 5285 5284 5284 5284 5285 5284 5284 5285 5286 5287 5287 5287 5287 5287 5288 5289 5289 5290 5292 5293 5293 5294 5295 5295 5295 5296 5297 5297 5298 5299 5299 5300 5300 5301 5301 5301 5301 5301 5301 5302 5302 5302 5302
5279 5278 5278 5278 5278 5278 5278 5278 5279 5280 5280 5281 5281 5282 5283 5283 5284 5284 5286 5286 5286 5287 5288 5289 5289 5290 5291 5291 5292 5292 5293 5294 5294 5295 5295 5296 5296 5297 5297 5297 5298 5298 5298 5298
5273 5272 5272 5271 5271 5272 5274 5274 5273 5274 5274 5275 5275 5275 5276 5278 5279 5279 5279 5280 5281 5282 5283 5284 5284 5285 5286 5286 5287 5287 5288 5289 5289 5290 5290 5291 5292 5292 5293 5293 5293 5294 5293 5293
5267 5266 5266 5266 5268 5269 5269 5269 5268 5269 5270 5271 5272 5272 5272 5272 5273 5274 5274 5275 5276 5277 5278 5279 5279 5280 5280 5281 5281 5282 5283 5283 5284 5285 5285 5286 5287 5288 5288 5289 5289 5289 5289 5289
5262 5263 5263 5262 5262 5263 5264 5265 5266 5266 5267 5268 5269 5268 5268 5267 5268 5268 5269 5269 5270 5272 5273 5273 5274 5275 5275 5276 5276 5277 5277 5278 5279 5279 5280 5281 5282 5283 5284 5284 5284 5285 5285 5285
5257 5258 5257 5259 5259 5259 5260 5261 5262 5262 5263 5263 5264 5264 5263 5263 5263 5263 5264 5265 5266 5267 5268 5268 5269 5270 5270 5271 5271 5272 5272 5273 5274 5275 5275 5276 5277 5278 5279 5279 5280 5281 5281 5281